Wind_Speed
26 27 31 25 24 20 18 13 13 14 21 25 27 32 27 23 28 31 28 28 30 31 29 29 29 29 28 27 26 25 25 26 26 26 26 25 25 24 23 22 23 25 27 30
27 32 24 22 21 21 24 23 23 23 24 24 26 35 32 25 17 20 23 23 19 27 34 32 29 30 28 27 27 25 24 25 26 27 26 26 25 23 22 21 22 24 26 29
28 21 26 26 23 23 22 23 21 23 25 27 30 36 16 18 17 16 16 20 21 19 27 24 28 30 28 27 26 25 25 26 26 27 26 26 25 23 21 20 21 23 25 27
25 28 21 19 24 25 25 24 23 23 20 11 11 11 27 7 16 13 10 9 15 17 19 21 22 23 25 26 26 25 26 26 26 26 26 26 24 22 21 20 21 22 23 26
23 24 32 28 25 20 22 21 19 16 15 17 15 9 10 16 9 10 5 10 12 11 15 17 16 14 17 19 22 23 24 25 25 25 25 25 24 22 20 19 20 22 23 25
31 24 23 27 27 24 22 16 12 13 12 4 16 12 13 6 8 8 6 16 13 14 12 12 11 12 13 13 16 17 19 20 22 24 24 25 23 22 20 19 19 20 22 24
33 27 28 24 22 22 23 14 2 3 1 6 10 11 25 14 15 13 13 17 16 14 14 13 13 10 9 10 12 14 15 17 19 22 23 25 24 22 20 19 19 20 21 23
33 14 32 28 29 22 23 21 8 7 4 3 6 9 5 6 20 28 20 23 15 14 14 13 8 7 8 11 13 12 13 16 18 21 23 24 24 22 21 19 18 19 20 22
21 18 17 27 31 29 23 21 22 6 8 3 10 16 29 30 25 19 13 13 8 13 11 7 6 8 10 10 11 10 12 15 17 20 23 24 24 22 21 20 18 18 19 21
19 8 20 23 25 28 24 23 12 10 2 5 8 11 14 8 7 1 6 9 12 11 10 7 6 8 10 12 13 12 12 14 16 18 20 22 24 23 22 21 18 17 17 21
39 24 12 18 24 31 30 26 16 13 8 5 1 5 1 12 14 12 9 10 6 9 11 10 8 10 12 13 14 16 16 17 17 18 20 22 23 23 22 21 19 17 16 22
48 23 20 22 16 26 32 33 35 16 8 11 5 9 9 7 7 7 8 8 6 8 13 15 15 16 17 19 18 19 20 22 22 19 21 23 24 23 23 21 19 17 15 23
43 21 10 5 18 24 32 35 38 39 29 22 8 4 11 18 22 17 15 13 10 10 12 17 19 20 21 23 25 25 24 25 27 25 23 23 25 24 23 22 19 17 14 22
24 29 27 16 9 13 32 43 37 38 28 27 40 29 21 20 14 12 15 17 21 21 27 22 21 23 25 27 27 29 31 30 32 28 25 24 25 25 23 22 20 16 12 22
26 20 31 21 17 14 13 12 20 45 48 29 29 34 34 37 37 35 34 36 38 35 27 25 28 32 34 35 35 33 34 34 36 30 27 25 25 25 24 22 20 18 12 21
27 18 20 25 29 29 29 27 23 21 23 33 38 49 35 37 38 39 33 34 35 35 34 34 37 37 35 32 28 26 29 31 34 32 26 24 24 23 25 22 20 20 15 19
38 34 25 12 23 23 29 42 40 40 45 44 51 54 46 45 41 38 37 37 42 44 41 41 38 34 35 33 31 36 29 29 31 30 25 25 25 25 25 22 22 21 19 18
32 32 25 7 11 7 18 20 15 22 21 27 27 24 20 24 23 23 24 21 20 23 27 32 35 35 34 31 28 28 31 30 31 29 27 27 27 23 24 24 23 21 23 18
32 35 13 9 19 14 18 17 18 20 21 23 25 14 11 17 24 21 17 24 24 24 20 15 12 12 13 13 14 16 22 23 24 24 25 25 23 22 23 24 24 22 24 18
29 31 32 15 6 7 5 8 10 11 20 12 7 4 9 15 19 10 13 10 5 4 5 7 9 11 10 9 9 9 9 10 11 14 18 18 19 21 25 26 25 28 22 18
31 30 32 21 12 12 20 7 10 12 8 9 9 15 11 7 5 6 8 8 8 8 11 7 6 8 9 9 8 6 6 6 9 12 14 17 20 24 27 28 28 30 20 18
34 24 20 21 13 17 17 17 22 21 19 16 7 6 5 8 8 5 6 11 13 16 16 16 14 15 15 15 15 15 17 18 18 17 17 20 23 25 28 29 31 25 19 19
22 28 31 26 30 19 20 14 10 11 14 11 10 8 9 12 11 11 13 17 20 21 21 19 17 16 18 20 21 21 20 22 23 22 23 19 22 24 26 29 27 24 19 19
29 28 34 30 36 35 36 31 21 18 17 18 19 21 19 22 24 23 21 24 25 25 27 29 30 28 26 24 24 25 24 19 18 19 17 19 20 22 23 27 25 25 21 20
29 28 35 38 38 26 28 34 36 33 26 23 21 25 22 26 27 29 30 30 33 34 35 35 32 32 29 26 23 22 20 19 17 19 20 20 20 22 24 25 24 27 22 21
32 31 33 38 36 35 34 33 25 24 25 26 31 34 32 34 33 31 27 27 29 32 32 28 27 31 32 31 26 22 22 22 21 22 22 20 21 21 26 27 26 30 25 21
Wind_Direction
219 222 227 237 244 243 239 239 240 264 278 285 292 292 293 296 296 298 295 283 274 273 268 263 265 267 268 272 276 277 278 278 281 285 290 293 295 298 302 305 314 322 328 333
224 231 234 234 241 239 246 255 260 271 278 286 293 291 296 300 301 294 292 289 278 268 266 262 264 267 270 272 275 276 278 279 279 282 287 290 292 296 299 302 313 322 327 332
228 240 235 232 235 243 251 258 263 267 280 287 297 298 293 304 310 300 290 282 288 282 271 273 267 266 268 272 276 278 276 276 277 281 286 289 291 294 296 301 312 320 326 332
230 228 235 237 239 243 249 254 263 268 278 286 289 290 293 310 317 307 306 308 277 286 281 281 281 279 271 267 273 277 277 276 276 280 285 287 290 294 291 298 310 320 326 332
224 231 234 238 240 235 242 249 256 271 276 284 285 259 291 301 283 295 252 314 289 297 294 296 293 283 274 270 272 275 276 275 276 278 283 285 288 289 288 295 309 318 325 331
229 234 230 232 236 237 243 242 254 268 268 262 263 227 281 253 261 263 256 330 296 299 300 305 301 289 282 277 276 280 280 280 280 280 282 283 285 287 286 292 305 316 322 331
223 230 232 231 229 227 229 224 281 320 185 225 236 212 255 270 262 268 265 308 292 292 291 294 299 296 292 291 289 287 287 285 280 279 279 280 283 285 283 287 301 313 322 330
214 227 229 229 229 232 221 213 200 210 202 237 237 231 235 244 283 291 271 291 284 277 286 292 295 291 293 294 291 291 293 288 283 280 279 280 282 284 281 283 295 310 320 329
206 221 231 227 223 222 205 208 228 248 270 290 230 252 267 274 276 270 262 270 273 274 275 273 284 296 294 290 294 300 302 300 291 287 284 283 284 283 280 279 290 304 318 328
213 200 212 216 216 217 218 216 202 202 211 256 230 220 237 230 221 279 225 239 288 261 253 256 287 309 300 295 297 302 305 310 300 297 292 287 285 282 279 275 284 299 316 327
218 218 207 208 214 218 212 205 206 211 218 197 246 237 170 234 271 266 234 266 258 234 247 252 271 308 305 297 294 299 299 307 310 305 294 289 285 280 277 273 279 293 312 326
212 219 221 217 223 224 221 226 220 216 213 225 243 232 181 203 243 242 221 268 250 244 260 254 260 281 293 300 302 308 309 308 304 302 295 289 284 283 277 272 274 287 309 321
211 217 176 194 231 225 222 224 224 226 236 233 203 227 216 244 254 250 251 272 242 287 269 262 263 267 274 281 287 291 297 299 299 295 294 289 281 279 276 270 269 282 307 314
209 216 212 216 203 207 222 232 228 227 228 240 235 239 234 239 240 244 262 255 255 266 290 269 271 272 274 274 272 275 282 286 291 288 286 284 280 274 275 270 266 274 304 304
200 219 222 222 228 235 234 231 233 231 236 236 256 259 262 264 264 264 270 262 264 274 273 271 278 278 277 272 271 271 273 282 283 281 277 278 277 275 273 269 262 269 295 295
207 229 236 238 240 249 255 250 243 245 244 251 256 259 265 275 275 274 270 272 275 276 279 280 279 281 280 283 284 281 280 279 273 272 270 271 271 274 273 266 261 261 288 285
216 222 222 232 239 246 261 250 247 248 253 257 261 278 285 280 280 279 273 270 265 264 267 275 281 285 288 290 284 281 271 268 270 268 266 266 265 266 268 265 257 251 276 279
218 215 216 219 204 226 249 256 253 250 260 263 267 277 282 285 284 276 274 272 268 270 270 273 282 288 288 282 275 275 266 268 273 271 266 264 266 270 265 257 251 246 270 272
223 209 199 197 202 253 231 231 237 253 272 270 274 283 275 268 265 260 263 266 274 277 282 284 282 288 290 288 281 276 267 269 274 274 267 270 268 263 263 256 246 243 264 269
218 219 209 196 212 216 237 224 215 227 254 259 223 290 288 255 254 275 254 263 250 222 255 278 296 297 291 291 289 284 281 282 280 275 273 269 266 260 251 243 239 241 252 264
198 209 215 206 219 254 239 216 199 204 267 231 247 278 266 266 206 216 221 215 222 255 283 299 313 301 297 294 290 289 297 292 288 300 297 282 273 255 247 242 234 252 234 259
195 190 203 212 218 256 243 227 227 261 258 274 245 211 222 188 168 205 239 236 254 270 268 277 289 291 289 284 280 284 294 300 306 304 295 277 267 261 254 251 248 250 222 253
204 214 216 217 223 244 232 250 252 254 254 212 217 210 217 224 243 244 253 262 268 268 266 272 279 288 286 284 286 289 290 300 291 292 301 289 275 261 260 251 256 237 219 249
227 232 232 237 245 252 255 253 250 251 241 249 239 240 242 253 253 257 267 265 261 264 273 278 281 287 295 293 276 279 290 291 289 291 292 293 285 264 262 261 248 226 215 243
232 232 238 242 245 245 247 249 251 252 243 232 248 246 248 240 238 248 267 261 265 269 275 280 282 287 289 283 285 286 287 281 278 278 285 295 289 269 254 257 238 221 217 237
236 236 232 239 249 250 251 244 236 234 242 244 243 240 240 247 255 254 259 263 268 273 273 276 276 280 280 284 288 286 283 279 269 267 275 284 286 277 254 249 235 218 215 228
Height
3094 3096 3094 3101 3104 3107 3106 3108 3108 3107 3106 3105 3102 3098 3099 3101 3097 3093 3092 3092 3091 3090 3091 3091 3092 3093 3095 3096 3098 3098 3099 3098 3098 3097 3096 3095 3094 3092 3091 3088 3085 3082 3079 3074
3091 3088 3096 3098 3099 3102 3102 3104 3105 3104 3103 3101 3098 3092 3093 3093 3091 3089 3086 3084 3085 3083 3081 3084 3087 3087 3090 3091 3092 3093 3094 3094 3093 3092 3091 3090 3089 3087 3086 3084 3082 3079 3076 3071
3086 3088 3091 3094 3096 3098 3099 3099 3101 3101 3099 3097 3093 3085 3086 3089 3087 3084 3082 3080 3078 3078 3076 3077 3080 3082 3084 3085 3087 3088 3088 3088 3088 3087 3087 3085 3084 3083 3082 3080 3078 3076 3072 3068
3083 3084 3087 3089 3091 3094 3095 3096 3097 3097 3097 3095 3093 3084 3080 3082 3081 3079 3078 3077 3075 3074 3072 3072 3075 3077 3078 3081 3082 3083 3082 3082 3083 3082 3082 3081 3080 3080 3079 3078 3076 3073 3070 3066
3076 3077 3081 3084 3086 3089 3090 3091 3093 3094 3094 3093 3089 3091 3076 3078 3078 3077 3076 3075 3074 3072 3070 3069 3070 3072 3074 3075 3077 3077 3077 3077 3078 3078 3077 3076 3076 3075 3074 3074 3073 3070 3067 3063
3070 3073 3076 3077 3081 3084 3086 3089 3090 3090 3092 3091 3084 3087 3069 3074 3073 3073 3073 3072 3071 3070 3068 3067 3068 3069 3070 3071 3072 3073 3073 3074 3074 3074 3074 3073 3072 3071 3071 3070 3069 3067 3064 3061
3066 3067 3070 3073 3076 3079 3081 3085 3089 3091 3091 3086 3079 3081 3069 3071 3070 3070 3070 3069 3068 3068 3067 3066 3066 3068 3069 3069 3070 3070 3070 3070 3070 3070 3069 3069 3069 3068 3068 3067 3066 3064 3062 3058
3058 3063 3062 3066 3069 3073 3075 3079 3082 3087 3085 3078 3077 3072 3065 3067 3067 3066 3066 3065 3065 3065 3065 3065 3065 3066 3067 3067 3067 3067 3067 3067 3066 3066 3065 3064 3064 3064 3064 3064 3062 3061 3059 3056
3051 3055 3056 3058 3062 3068 3070 3073 3075 3076 3075 3076 3069 3064 3064 3062 3061 3059 3060 3062 3062 3063 3063 3063 3064 3065 3065 3065 3065 3065 3064 3064 3064 3063 3063 3062 3061 3060 3060 3060 3060 3058 3056 3054
3045 3047 3049 3053 3057 3062 3064 3067 3071 3074 3077 3076 3058 3058 3058 3058 3058 3058 3059 3060 3059 3059 3061 3061 3062 3062 3062 3063 3063 3062 3061 3062 3060 3060 3059 3058 3058 3058 3057 3057 3056 3056 3053 3051
3039 3040 3045 3047 3046 3051 3056 3058 3062 3066 3065 3062 3061 3053 3053 3056 3057 3057 3057 3057 3057 3057 3059 3060 3060 3059 3060 3060 3059 3059 3059 3058 3056 3055 3054 3053 3053 3053 3052 3052 3053 3052 3051 3048
3028 3032 3036 3039 3042 3043 3046 3050 3054 3056 3057 3055 3053 3048 3051 3053 3054 3055 3055 3054 3054 3055 3056 3056 3056 3056 3056 3056 3056 3054 3054 3054 3052 3050 3049 3048 3047 3047 3048 3048 3049 3048 3047 3045
3017 3024 3030 3034 3038 3036 3036 3039 3044 3048 3048 3041 3048 3040 3045 3048 3050 3051 3052 3051 3052 3052 3052 3053 3053 3052 3051 3050 3050 3050 3050 3049 3048 3047 3045 3044 3043 3042 3042 3043 3044 3045 3043 3043
3012 3015 3017 3015 3017 3022 3025 3028 3033 3038 3037 3034 3025 3033 3040 3045 3046 3047 3048 3048 3046 3046 3047 3048 3048 3047 3046 3044 3043 3043 3042 3044 3042 3041 3040 3039 3039 3038 3038 3038 3039 3040 3039 3039
3007 3009 3012 3013 3014 3017 3021 3022 3024 3024 3028 3027 3028 3027 3032 3036 3037 3039 3041 3040 3039 3041 3040 3040 3039 3037 3037 3036 3037 3035 3034 3035 3035 3034 3035 3034 3033 3033 3033 3033 3034 3036 3035 3035
3002 3005 3007 3011 3013 3014 3015 3016 3016 3020 3021 3019 3022 3009 3025 3025 3026 3028 3032 3031 3031 3031 3030 3030 3029 3028 3028 3028 3028 3027 3027 3026 3026 3026 3028 3028 3029 3029 3029 3030 3031 3032 3030 3030
2995 2998 3003 3005 3010 3009 3006 3000 3009 3010 3010 3014 3008 3006 3015 3012 3013 3016 3019 3019 3017 3017 3019 3019 3018 3018 3019 3019 3019 3019 3018 3019 3019 3020 3022 3023 3024 3024 3026 3027 3027 3027 3026 3027
2985 2992 2998 3000 3005 3003 2992 2993 2999 2999 3001 3001 3000 3001 3004 3003 3004 3005 3008 3008 3009 3009 3010 3011 3012 3012 3011 3009 3008 3009 3010 3012 3013 3013 3013 3013 3017 3020 3022 3022 3022 3023 3023 3023
2981 2986 2992 2995 2995 2989 2987 2987 2991 2991 2994 2993 2992 2993 2995 2995 2996 2999 3001 3002 3003 3004 3005 3007 3007 3005 3004 3003 3002 3001 3005 3006 3010 3011 3011 3012 3010 3012 3017 3018 3018 3018 3019 3020
2976 2981 2986 2988 2989 2986 2982 2982 2985 2988 2986 2986 2988 2989 2990 2987 2988 2992 2994 2998 3000 3000 3001 3001 3003 3002 3000 2999 3000 2998 2998 3001 3004 3005 3010 3007 3007 3008 3009 3010 3013 3014 3016 3017
2968 2974 2976 2981 2983 2976 2975 2980 2982 2985 2988 2984 2985 2987 2987 2985 2988 2989 2991 2995 2997 2998 2998 2998 2997 2997 2996 2998 2998 2996 2998 2998 2998 3003 3003 3005 3003 3000 3001 3003 3006 3008 3012 3014
2957 2965 2969 2976 2979 2972 2970 2973 2977 2980 2978 2981 2982 2982 2983 2983 2983 2988 2990 2993 2992 2993 2994 2994 2993 2996 2995 2993 2994 2993 2993 2994 2996 2997 2998 2996 2997 2997 2997 2997 2998 3002 3006 3010
2954 2955 2958 2963 2959 2961 2963 2969 2971 2973 2977 2978 2980 2980 2979 2982 2983 2985 2986 2987 2988 2988 2989 2989 2990 2990 2990 2989 2992 2990 2988 2989 2989 2988 2990 2990 2992 2991 2991 2991 2994 2997 3002 3005
2945 2949 2952 2956 2956 2959 2960 2963 2967 2970 2971 2974 2976 2974 2975 2977 2978 2980 2982 2982 2982 2980 2982 2983 2984 2984 2985 2984 2984 2985 2983 2984 2984 2983 2985 2985 2984 2985 2985 2985 2989 2992 2996 3000
2938 2941 2944 2946 2949 2951 2954 2956 2960 2962 2964 2968 2969 2969 2968 2970 2973 2974 2975 2975 2976 2976 2976 2976 2978 2979 2978 2977 2976 2980 2978 2976 2974 2977 2980 2981 2980 2979 2979 2981 2983 2987 2990 2994
2928 2931 2934 2937 2943 2945 2948 2951 2953 2954 2956 2958 2959 2960 2960 2961 2963 2965 2966 2966 2966 2969 2970 2971 2968 2971 2971 2971 2970 2971 2973 2972 2969 2970 2973 2974 2975 2973 2974 2976 2978 2981 2984 2989